RH
49 52 50 52 54 56 54 58 59 60 65 67 67 64 69 68 63 59 55 56 58 60 61 63 61 62 65 71 65 69 69 72 74 78 56 82 76 83 74 58 65 71 74
51 49 48 50 52 53 55 55 55 56 59 60 65 65 67 64 67 65 59 57 57 59 50 63 66 62 67 69 67 71 76 81 78 83 92 91 83 77 47 57 48 44 66
45 43 43 47 50 51 53 53 54 55 60 63 59 59 59 61 61 60 63 63 60 60 63 62 64 63 68 70 68 72 79 80 84 79 85 89 90 78 74 44 56 42 61
36 37 39 42 42 46 45 51 54 52 50 61 63 63 62 60 64 68 64 66 63 63 63 64 64 66 71 67 66 58 78 82 81 83 64 86 89 94 86 62 54 59 46
35 38 39 37 42 44 49 53 56 56 57 61 62 67 65 66 68 67 67 70 69 65 65 66 66 68 67 69 70 71 74 78 83 84 86 86 85 84 90 85 72 56 46
38 37 39 40 45 45 51 54 56 60 60 62 64 65 66 67 68 66 68 69 68 69 68 61 68 67 68 72 71 72 74 76 80 80 82 84 86 83 88 85 81 80 64
44 45 47 47 48 50 52 54 60 64 64 64 65 64 64 66 68 68 71 70 66 66 68 68 69 68 68 68 70 71 72 72 75 82 77 76 77 76 79 83 76 80 68
58 58 57 55 52 52 62 66 66 66 64 66 65 63 62 64 65 68 69 68 68 68 66 69 66 66 67 68 68 70 70 67 69 74 76 74 74 73 75 79 83 78 75
73 75 72 71 74 77 72 69 68 66 66 64 65 64 66 62 67 66 66 67 71 54 50 61 63 67 69 67 68 69 71 71 69 69 69 73 72 73 73 75 78 84 85
88 92 94 92 94 86 84 76 71 72 67 65 68 54 66 65 64 64 63 61 62 62 62 62 62 63 66 69 70 71 69 70 68 63 69 69 69 68 70 75 75 78 84
89 94 97 97 97 97 96 93 79 77 73 68 72 71 66 63 62 60 60 61 60 61 63 64 64 64 64 62 67 70 71 72 69 67 69 69 68 69 70 71 73 76 79
97 97 98 98 98 97 96 96 94 89 80 80 81 70 65 60 63 62 60 58 62 62 64 63 64 63 61 62 67 70 69 74 74 72 72 72 59 69 69 71 74 75 74
96 97 97 97 97 97 96 96 93 93 89 90 85 75 69 68 68 65 62 62 66 67 67 61 68 66 62 63 64 67 68 70 71 71 72 72 72 74 71 72 74 73 65
92 96 98 98 98 97 98 97 93 91 91 89 87 84 78 72 72 71 69 69 69 69 69 64 63 62 63 56 55 53 59 64 65 66 68 71 73 75 76 73 75 71 76
82 92 96 98 97 97 94 94 94 92 91 94 91 87 81 78 76 72 68 65 64 62 63 60 61 63 61 51 53 52 60 67 70 69 68 71 72 76 85 85 91 94 93
83 90 91 91 92 92 92 91 93 92 96 94 94 90 87 84 80 75 71 68 66 66 64 65 66 67 55 65 69 67 68 67 70 75 73 72 68 70 69 67 68 70 90
91 92 91 90 90 90 90 93 91 94 98 97 94 94 92 90 88 79 75 73 72 71 71 69 68 70 69 76 74 69 62 67 68 68 69 72 54 60 60 68 69 67 67
91 88 89 88 89 92 92 92 94 95 96 96 96 93 95 93 90 90 84 80 76 76 74 72 69 72 66 75 71 68 60 67 65 64 64 64 67 68 68 69 75 75 74
88 90 89 87 89 91 89 93 92 95 98 96 94 92 93 95 93 94 93 86 86 80 75 63 65 70 67 74 72 64 61 63 62 59 62 67 68 75 70 64 75 80 84
92 86 83 88 92 87 91 94 93 96 96 92 89 88 92 95 97 93 93 91 89 80 64 61 62 75 69 75 74 68 62 78 67 63 62 68 61 67 70 63 75 84 74
82 81 88 87 83 84 90 94 92 94 87 86 88 91 93 96 95 94 95 94 94 89 91 84 81 76 74 74 77 72 60 65 67 67 72 72 65 62 63 69 72 86 69
73 66 79 82 77 79 91 88 87 79 88 90 91 93 95 93 91 98 93 97 99 98 96 96 92 80 74 77 76 73 67 63 63 86 69 68 69 70 71 66 74 80 68
58 57 66 74 74 77 85 86 79 86 90 92 90 94 92 93 93 93 94 96 100 100 97 96 94 90 76 70 78 73 66 64 60 64 79 81 66 62 73 77 62 61 61
51 50 55 62 66 63 64 75 83 82 93 91 90 91 97 95 94 94 96 98 98 97 96 95 94 90 87 83 79 64 67 76 75 74 75 72 87 67 62 60 58 56 60
53 53 58 59 61 60 63 66 67 73 85 89 92 93 86 91 92 91 93 97 91 95 96 92 90 90 92 93 69 68 76 84 88 76 89 77 69 67 66 65 63 63 62
64 65 65 66 68 70 74 73 72 76 85 92 87 86 87 92 90 93 92 84 80 76 72 72 78 91 81 63 64 68 73 78 78 92 85 81 76 76 73 72 74 72 75
Wind_Speed
6 6 5 6 6 6 6 6 7 7 5 4 3 3 3 3 5 5 7 7 7 8 8 7 8 8 8 8 10 9 10 7 12 7 8 4 7 5 7 9 10 14 14
8 6 6 4 5 5 5 6 6 6 5 4 3 2 2 2 3 5 8 9 9 9 9 7 6 6 5 8 9 10 7 4 9 6 5 7 6 8 12 8 10 13 10
13 9 7 6 5 5 5 5 5 6 6 6 4 3 2 2 2 3 4 5 7 8 8 8 7 7 6 6 6 6 8 7 4 10 5 6 5 13 4 11 9 14 10
10 9 7 6 5 4 4 5 6 7 7 7 5 6 3 3 3 3 4 5 6 7 7 6 6 5 4 6 6 7 4 4 6 4 7 3 6 4 9 5 13 9 15
12 11 8 7 5 5 5 5 5 6 6 6 6 4 4 3 3 4 6 5 4 5 5 6 6 5 4 4 5 5 5 3 3 4 5 5 5 9 7 12 12 12 10
9 8 6 8 5 5 5 4 5 5 6 5 6 6 6 6 5 6 6 5 4 3 4 6 5 4 5 5 4 4 5 4 4 4 4 4 4 6 6 10 11 17 12
10 9 9 7 6 5 4 4 5 5 6 6 6 6 6 5 5 6 5 7 5 4 5 6 5 4 4 5 5 5 5 5 5 4 5 5 6 6 8 9 12 12 13
7 8 8 6 6 6 5 5 4 4 5 5 4 5 4 4 4 5 5 5 5 5 7 5 6 6 6 5 5 5 5 5 5 7 6 6 6 7 7 8 11 14 12
7 6 6 7 6 6 5 4 3 2 3 3 4 4 3 5 5 6 7 5 5 7 7 8 8 7 6 7 7 6 7 6 6 7 8 7 7 7 7 8 8 11 16
2 2 3 4 2 4 4 3 2 1 2 3 3 5 6 6 6 6 7 7 7 7 8 8 8 8 8 7 7 6 7 8 6 7 8 8 7 9 8 8 9 9 12
4 4 3 1 2 2 2 3 1 1 3 3 4 5 6 7 7 7 7 7 8 8 8 9 9 9 9 8 8 8 9 9 8 8 9 11 10 9 9 9 9 10 11
1 3 2 1 2 2 1 1 2 2 3 4 4 7 7 7 7 8 9 9 9 9 9 9 9 10 10 9 9 11 10 11 11 10 10 12 10 12 11 9 12 11 12
3 2 2 3 3 3 3 3 4 4 4 4 5 6 7 7 7 8 9 9 9 9 9 10 10 10 10 10 10 11 11 11 12 12 12 13 12 13 11 12 12 12 12
3 2 0 2 3 4 4 5 6 5 5 5 6 7 7 8 7 8 9 9 9 10 10 10 11 12 11 12 13 13 12 12 12 13 14 14 14 15 15 14 16 15 14
4 4 4 5 5 5 6 6 6 6 5 5 6 8 8 8 8 9 9 9 10 10 10 12 11 11 11 11 11 12 12 13 14 14 14 15 19 27 23 14 14 13 12
5 4 5 6 6 6 7 7 7 7 4 6 8 8 8 8 9 9 9 9 10 10 11 11 12 12 11 19 21 19 13 14 15 15 14 13 22 21 29 30 32 26 16
6 6 7 7 7 8 8 8 8 5 6 7 8 7 8 8 9 9 9 9 10 10 11 11 12 13 12 21 22 23 12 13 14 15 15 14 12 21 16 23 30 29 32
7 7 7 7 8 6 6 7 7 7 7 7 7 8 7 8 9 8 9 10 9 10 11 12 13 13 12 22 23 24 14 13 15 15 16 17 17 17 19 18 19 20 20
8 7 8 9 8 8 9 7 9 8 6 8 9 9 8 8 8 8 9 9 9 10 11 13 13 13 13 22 24 21 13 14 16 15 16 16 18 24 30 20 20 20 18
9 11 11 9 8 11 8 7 10 8 9 10 11 10 7 8 8 9 9 8 9 12 12 14 13 17 16 21 24 20 11 13 12 15 16 25 23 29 29 20 17 18 18
13 11 9 11 12 9 6 8 9 11 11 10 10 9 7 8 8 8 6 8 9 11 10 13 12 13 14 15 24 24 13 12 12 12 13 10 26 29 31 31 18 19 21
13 13 12 12 12 10 7 11 12 12 8 8 10 9 7 8 7 7 8 6 7 9 10 10 11 9 12 19 20 24 25 24 14 13 12 14 29 32 32 29 31 33 30
15 13 13 14 12 10 9 13 15 7 7 8 10 8 8 7 7 9 9 7 5 6 8 7 9 10 9 9 21 24 27 26 17 13 20 31 32 32 27 22 30 30 13
15 14 14 15 15 12 12 12 11 8 7 10 10 7 6 8 8 7 6 6 6 7 7 8 9 10 10 9 9 11 12 21 17 20 15 22 23 24 22 19 15 11 11
15 14 14 15 16 14 14 12 12 9 10 9 8 9 8 8 8 8 7 7 8 9 9 10 11 10 11 8 19 20 12 11 15 21 11 8 9 10 11 10 11 11 11
15 14 16 16 16 15 14 13 11 11 12 11 9 9 8 7 8 7 8 17 22 24 25 26 19 11 19 26 27 28 28 27 30 12 8 10 10 11 11 12 12 12 15
Wind_Direction
162 140 124 112 95 63 59 46 40 18 19 11 5 16 33 18 39 38 32 31 32 23 35 22 14 12 16 11 8 358 360 359 351 334 329 287 299 21 351 342 0 3 348
149 148 141 117 92 90 67 52 44 32 27 24 1 0 343 18 50 23 20 19 21 21 28 25 21 16 8 14 6 13 357 338 4 343 302 340 330 358 332 347 341 358 354
161 163 153 146 129 100 79 65 51 44 34 18 3 1 11 28 10 11 20 9 15 12 13 11 9 7 9 14 356 18 11 353 347 347 17 343 332 334 325 334 353 335 348
159 157 154 152 141 119 87 70 54 40 41 22 30 38 31 358 357 339 349 356 4 6 6 5 0 352 356 0 355 6 1 350 350 337 22 295 299 316 315 333 320 352 331
160 161 164 154 134 112 87 71 67 48 33 31 30 27 20 352 327 340 346 352 355 354 350 349 343 341 352 341 339 341 342 332 326 327 323 313 310 266 289 309 320 314 324
152 153 140 134 123 114 103 83 79 57 38 32 24 25 15 344 350 340 335 337 333 332 335 338 326 334 328 328 322 319 319 311 297 298 300 301 306 303 295 302 305 301 313
157 154 155 154 148 127 99 106 51 50 32 25 20 14 357 349 326 318 318 322 325 332 331 325 323 325 312 311 308 307 301 299 290 279 296 288 279 282 285 289 294 294 306
165 168 171 156 140 131 95 79 63 44 22 11 7 356 339 328 308 305 304 300 301 306 304 301 319 311 305 299 296 293 290 287 295 279 270 278 279 281 281 284 297 298 295
178 167 145 153 142 132 127 111 87 41 7 345 338 318 319 311 299 300 295 290 290 298 308 314 303 297 294 294 291 288 287 278 278 279 282 275 278 277 275 276 280 287 294
65 158 147 133 119 138 123 101 77 29 327 332 336 329 312 301 300 293 290 293 293 292 296 299 298 298 292 285 281 280 276 279 280 281 275 275 282 285 280 276 273 272 278
244 205 181 78 89 103 142 159 140 328 313 312 303 300 296 300 296 295 294 293 295 295 292 293 293 290 291 288 284 275 275 266 274 275 276 279 281 277 279 274 271 271 271
278 143 149 183 185 211 253 259 279 295 288 289 292 298 297 296 292 290 293 295 291 288 287 284 283 282 286 287 287 287 289 285 283 283 278 275 277 275 274 274 273 270 271
84 92 121 198 220 253 273 273 275 275 275 272 276 284 283 282 281 284 289 290 289 287 288 292 290 289 289 288 282 278 277 274 273 275 273 273 271 272 270 269 270 269 269
289 185 209 263 272 267 264 275 280 275 269 267 267 273 275 280 283 287 286 289 288 289 290 290 289 286 284 284 283 281 276 270 267 269 268 270 267 266 270 265 263 263 262
259 209 214 241 250 256 262 259 257 263 264 269 273 276 280 277 276 276 277 281 283 285 288 287 287 283 280 276 270 270 274 276 276 273 271 271 269 271 271 273 272 267 258
259 258 252 252 251 251 257 257 258 258 229 252 252 263 267 269 270 273 274 280 285 285 286 283 282 281 278 283 288 288 280 277 278 279 277 276 282 281 281 279 280 278 273
263 259 259 258 258 255 248 249 248 235 237 242 254 252 257 265 265 270 276 279 281 285 282 282 280 278 276 283 286 285 287 288 284 281 281 282 280 284 281 280 280 281 280
244 259 259 266 263 258 268 262 254 249 249 256 259 259 249 257 263 263 270 277 279 283 284 283 279 276 276 284 291 294 291 288 286 282 277 274 275 271 274 272 270 266 262
233 245 252 259 261 262 265 268 278 267 258 259 258 255 247 252 257 260 262 269 275 279 281 280 275 276 283 287 291 298 297 286 283 281 275 272 271 272 275 277 275 272 267
247 265 259 251 249 258 248 254 263 256 257 257 254 249 237 238 244 253 259 261 267 279 284 287 286 283 288 290 293 294 285 286 282 278 272 273 279 281 285 283 282 280 279
264 263 253 251 252 251 235 249 253 251 249 253 252 249 239 240 243 252 243 257 265 277 276 281 280 277 275 279 287 291 289 283 282 280 279 277 286 287 287 285 278 275 278
268 270 270 262 258 254 238 253 255 257 237 246 250 247 244 253 254 240 259 247 247 265 272 273 279 275 273 277 284 290 290 291 288 286 285 282 284 284 287 287 288 290 294
274 271 266 265 261 251 236 253 259 244 239 247 255 246 250 244 243 258 262 260 234 251 269 268 276 279 275 272 280 288 297 291 287 282 277 287 290 290 295 291 294 295 291
270 268 268 264 265 264 260 251 250 247 236 254 253 252 239 259 247 247 245 244 251 257 262 264 267 270 273 270 262 273 281 280 280 284 284 279 286 301 292 297 292 283 278
270 266 265 266 267 268 265 261 258 255 255 252 255 250 260 260 262 255 248 241 244 238 247 249 251 262 267 246 278 293 292 286 287 297 287 313 302 298 293 289 286 284 282
273 270 267 267 267 265 264 264 259 255 256 259 265 261 258 253 254 261 272 269 276 279 280 281 279 271 295 302 299 296 299 300 295 302 324 303 295 289 292 290 289 286 284